GW0996 Weather Reports


time (UTC)temp
C
wind
direction
speed
KPH
gust
KPH
rain 1hr
cm
rain 24hr
cm
rain mn
cm
humidity
%
barometer
mb
20260901175633 27 312 1.6 3.2 0.00 0.00 0.00 58 1016.3
20260901175131 27 312 0.0 3.2 0.00 0.00 0.00 57 1016.1
20260901174631 28 308 0.0 3.2 0.00 0.00 0.00 56 1016.1
20260901174119 28 309 1.6 3.2 0.00 0.00 0.00 55 1016.0
20260901173620 28 304 0.0 9.7 0.00 0.00 0.00 54 1015.6
20260901172622 28 320 0.0 6.4 0.00 0.00 0.00 53 1015.8
20260901172119 29 311 3.2 4.8 0.00 0.00 0.00 53 1015.8
20260901171621 29 345 0.0 3.2 0.00 0.00 0.00 52 1015.6
20260901171119 29 3 1.6 6.4 0.00 0.00 0.00 52 1015.4
20260901170609 29 310 0.0 6.4 0.00 0.00 0.00 51 1015.6
20260901170106 30 313 1.6 4.8 0.00 0.00 0.00 50 1015.5
20260901165607 30 311 0.0 3.2 0.00 0.00 0.00 50 1015.6
20260901165044 30 71 1.6 6.4 0.00 0.00 0.00 48 1015.6
20260901164545 30 320 0.0 6.4 0.00 0.00 0.00 48 1015.4
20260901164031 30 317 1.6 9.7 0.00 0.00 0.00 47 1015.6
20260901163030 30 315 0.0 6.4 0.00 0.00 0.00 47 1015.7
20260901162534 30 44 0.0 1.6 0.00 0.00 0.00 46 1015.7
20260901162035 30 107 0.0 1.6 0.00 0.00 0.00 45 1015.6
20260901161034 31 52 0.0 1.6 0.00 0.00 0.00 44 1015.5
20260901160522 31 43 0.0 3.2 0.00 0.00 0.00 44 1015.5
20260901160013 31 349 0.0 9.7 0.00 0.00 0.00 44 1015.7
20260901155455 31 317 0.0 9.7 0.00 0.00 0.00 44 1015.7
20260901154948 31 315 3.2 9.7 0.00 0.00 0.00 44 1015.6
20260901153932 30 310 3.2 6.4 0.00 0.00 0.00 44 1015.8
20260901153435 30 327 3.2 11.3 0.00 0.00 0.00 44 1015.5
20260901152936 31 324 1.6 16.1 0.00 0.00 0.00 44 1015.6
20260901152433 31 323 4.8 16.1 0.00 0.00 0.00 43 1015.4
20260901151933 31 297 0.0 14.5 0.00 0.00 0.00 43 1015.6
20260901151433 31 318 0.0 9.7 0.00 0.00 0.00 44 1015.6
20260901150932 31 327 8.0 12.9 0.00 0.00 0.00 43 1015.4
20260901150431 31 322 1.6 12.9 0.00 0.00 0.00 43 1015.3
20260901145934 31 295 3.2 11.3 0.00 0.00 0.00 43 1015.4
20260901145430 31 316 4.8 12.9 0.00 0.00 0.00 42 1015.6
20260901143931 31 317 4.8 12.9 0.00 0.00 0.00 42 1015.7
20260901143433 32 82 0.0 9.7 0.00 0.00 0.00 41 1015.5
20260901142940 32 156 1.6 12.9 0.00 0.00 0.00 40 1015.6
20260901142433 32 320 3.2 14.5 0.00 0.00 0.00 40 1015.5
20260901141934 32 330 6.4 14.5 0.00 0.00 0.00 39 1015.6
20260901141436 32 303 1.6 16.1 0.00 0.00 0.00 40 1015.5
20260901140940 32 328 4.8 16.1 0.00 0.00 0.00 40 1015.5
20260901140434 32 80 0.0 11.3 0.00 0.00 0.00 40 1015.3
20260901135434 32 302 0.0 14.5 0.00 0.00 0.00 40 1015.6
20260901134426 33 112 1.6 3.2 0.00 0.00 0.00 37 1015.7
20260901133920 33 152 0.0 1.6 0.00 0.00 0.00 36 1015.7
20260901133407 32 54 0.0 11.3 0.00 0.00 0.00 38 1015.7
20260901132910 32 312 0.0 12.9 0.00 0.00 0.00 38 1015.7
20260901132407 32 316 3.2 12.9 0.00 0.00 0.00 38 1015.8
20260901131855 32 306 1.6 11.3 0.00 0.00 0.00 39 1015.8
20260901131358 32 322 4.8 11.3 0.00 0.00 0.00 37 1015.6
20260901130855 32 313 4.8 16.1 0.00 0.00 0.00 37 1015.7
20260901130342 32 311 3.2 16.1 0.00 0.00 0.00 38 1015.6
20260901124834 33 306 0.0 11.3 0.00 0.00 0.00 36 1015.8
20260901124334 34 322 0.0 11.3 0.00 0.00 0.00 37 1016.1
20260901123912 33 220 0.0 1.6 0.00 0.00 0.00 35 1015.9
20260901123333 33 146 0.0 6.4 0.00 0.00 0.00 35 1016.1
20260901122831 32 356 0.0 6.4 0.00 0.00 0.00 38 1016.1
20260901122338 32 310 3.2 6.4 0.00 0.00 0.00 38 1016.1
20260901121834 32 304 1.6 14.5 0.00 0.00 0.00 39 1016.1
20260901121334 32 322 0.0 14.5 0.00 0.00 0.00 39 1016.2
20260901120834 32 303 1.6 12.9 0.00 0.00 0.00 40 1016.2
20260901115835 32 213 0.0 4.8 0.00 0.00 0.00 39 1016.2
20260901115334 32 11 0.0 11.3 0.00 0.00 0.00 39 1016.2
20260901114833 32 349 1.6 14.5 0.00 0.00 0.00 42 1016.4
20260901114333 32 313 6.4 14.5 0.00 0.00 0.00 41 1016.2
20260901113833 32 330 1.6 12.9 0.00 0.00 0.00 42 1016.3
20260901112832 32 332 3.2 12.9 0.00 0.00 0.00 44 1016.2
20260901111330 31 315 0.0 6.4 0.00 0.00 0.00 44 1016.4
20260901110832 31 328 0.0 11.3 0.00 0.00 0.00 42 1016.5
20260901110331 31 312 6.4 14.5 0.00 0.00 0.00 43 1016.4
20260901105832 32 333 4.8 14.5 0.00 0.00 0.00 44 1016.4
20260901105331 33 339 1.6 6.4 0.00 0.00 0.00 44 1016.5
20260901104835 33 117 0.0 3.2 0.00 0.00 0.00 43 1016.4
20260901104330 32 152 0.0 3.2 0.00 0.00 0.00 44 1016.6
20260901103836 32 305 0.0 3.2 0.00 0.00 0.00 47 1016.6
20260901103331 32 143 0.0 4.8 0.00 0.00 0.00 45 1016.7
20260901102833 32 169 0.0 4.8 0.00 0.00 0.00 45 1016.6
20260901102333 32 134 0.0 3.2 0.00 0.00 0.00 45 1016.7
20260901101840 31 37 0.0 6.4 0.00 0.00 0.00 49 1016.9
20260901101333 31 325 0.0 6.4 0.00 0.00 0.00 49 1016.6
20260901100833 31 313 4.8 6.4 0.00 0.00 0.00 48 1016.7
20260901100337 31 15 1.6 9.7 0.00 0.00 0.00 51 1016.7
20260901095834 31 309 3.2 9.7 0.00 0.00 0.00 50 1016.7
20260901095334 31 161 0.0 3.2 0.00 0.00 0.00 52 1017.0
20260901094832 31 323 0.0 4.8 0.00 0.00 0.00 54 1016.9
20260901094331 30 313 3.2 4.8 0.00 0.00 0.00 53 1016.9
20260901093830 30 304 3.2 4.8 0.00 0.00 0.00 52 1017.0
20260901093335 30 86 1.6 3.2 0.00 0.00 0.00 55 1017.0
20260901092832 30 298 0.0 4.8 0.00 0.00 0.00 53 1017.1
20260901092331 29 187 0.0 4.8 0.00 0.00 0.00 56 1017.2
20260901091835 30 304 4.8 4.8 0.00 0.00 0.00 56 1017.1
20260901091336 30 358 1.6 3.2 0.00 0.00 0.00 57 1017.1
20260901090833 29 316 0.0 3.2 0.00 0.00 0.00 60 1017.1
20260901085834 29 320 0.0 3.2 0.00 0.00 0.00 58 1017.3
20260901084831 28 313 0.0 1.6 0.00 0.00 0.00 61 1017.2
20260901084413 28 300 0.0 1.6 0.00 0.00 0.00 63 1017.2
20260901083831 27 300 0.0 3.2 0.00 0.00 0.00 65 1017.4
20260901083319 27 282 1.6 3.2 0.00 0.00 0.00 62 1017.0
20260901082822 27 9 1.6 1.6 0.00 0.00 0.00 62 1017.2
20260901082319 27 9 0.0 0.0 0.00 0.00 0.00 65 1017.1
20260901081806 27 8 0.0 0.0 0.00 0.00 0.00 65 1017.1
20260901081306 27 8 0.0 0.0 0.00 0.00 0.00 65 1017.1
20260901080807 27 8 0.0 1.6 0.00 0.00 0.00 66 1017.1
20260901080257 27 1 0.0 1.6 0.00 0.00 0.00 66 1017.0
20260901075755 27 1 0.0 0.0 0.00 0.00 0.00 65 1017.1
20260901074246 26 7 0.0 1.6 0.00 0.00 0.00 65 1017.1
20260901072743 25 337 0.0 0.0 0.00 0.00 0.00 67 1016.9
20260901072246 24 337 0.0 0.0 0.00 0.00 0.00 72 1016.8
20260901071249 24 336 0.0 0.0 0.00 0.00 0.00 69 1017.2
20260901070742 23 336 0.0 1.6 0.00 0.00 0.00 72 1016.8
20260901070243 23 336 0.0 1.6 0.00 0.00 0.00 74 1016.9
20260901065743 22 324 0.0 0.0 0.00 0.00 0.00 74 1016.9
20260901065230 22 322 0.0 0.0 0.00 0.00 0.00 75 1016.7
20260901064737 22 313 0.0 0.0 0.00 0.00 0.00 75 1016.9
20260901064235 22 313 0.0 0.0 0.00 0.00 0.00 75 1016.9
20260901063734 22 320 0.0 0.0 0.00 0.00 0.00 76 1016.9
20260901063236 21 312 0.0 0.0 0.00 0.00 0.00 77 1016.8
20260901062735 21 312 0.0 0.0 0.00 0.00 0.00 79 1016.9
20260901062233 21 312 0.0 0.0 0.00 0.00 0.00 80 1017.0
20260901061730 20 318 0.0 0.0 0.00 0.00 0.00 80 1016.8
20260901061232 20 320 0.0 0.0 0.00 0.00 0.00 82 1016.9
20260901060230 20 314 0.0 0.0 0.00 0.00 0.00 83 1017.0
20260901055733 20 314 0.0 0.0 0.00 0.00 0.00 83 1017.1
20260901055230 19 315 0.0 0.0 0.00 0.00 0.00 87 1016.9
20260901054730 18 327 0.0 0.0 0.00 0.00 0.00 88 1016.7
20260901054233 18 327 0.0 0.0 0.00 0.00 0.00 91 1016.8
20260901053730 18 326 0.0 0.0 0.00 0.00 0.00 91 1017.0
20260901053230 18 326 0.0 0.0 0.00 0.00 0.00 91 1017.0
20260901052732 18 326 0.0 0.0 0.00 0.00 0.00 91 1016.8
20260901052235 17 326 0.0 0.0 0.00 0.00 0.00 91 1017.0
20260901051734 17 326 0.0 0.0 0.00 0.00 0.00 91 1016.8
20260901051236 17 326 0.0 0.0 0.00 0.00 0.00 91 1016.9
20260901050733 17 326 0.0 0.0 0.00 0.00 0.00 91 1016.8
20260901050240 17 326 0.0 0.0 0.00 0.00 0.00 91 1016.9
20260901045735 17 326 0.0 0.0 0.00 0.00 0.00 91 1016.8
20260901044734 17 326 0.0 0.0 0.00 0.00 0.00 91 1016.9
20260901043735 17 320 0.0 0.0 0.00 0.00 0.00 91 1016.7
20260901043234 17 320 0.0 0.0 0.00 0.00 0.00 90 1016.7
20260901042717 17 320 0.0 0.0 0.00 0.00 0.00 90 1016.4
20260901042217 17 320 0.0 0.0 0.00 0.00 0.00 90 1016.9
20260901041719 17 320 0.0 0.0 0.00 0.00 0.00 90 1016.7
20260901041217 17 320 0.0 0.0 0.00 0.00 0.00 90 1016.6
20260901040718 17 320 0.0 0.0 0.00 0.00 0.00 90 1016.5
20260901040219 17 320 0.0 0.0 0.00 0.00 0.00 90 1016.8
20260901035705 17 320 0.0 0.0 0.00 0.00 0.00 89 1016.5
20260901035207 17 320 0.0 0.0 0.00 0.00 0.00 89 1016.9
20260901034705 17 320 0.0 0.0 0.00 0.00 0.00 89 1016.6
20260901034147 17 320 0.0 0.0 0.00 0.00 0.00 89 1016.6
20260901033642 18 320 0.0 0.0 0.00 0.00 0.00 88 1016.6
20260901033131 18 320 0.0 0.0 0.00 0.00 0.00 89 1016.5
20260901032630 18 320 0.0 0.0 0.00 0.00 0.00 89 1016.4
20260901032132 18 320 0.0 0.0 0.00 0.00 0.00 89 1016.3
20260901031633 18 320 0.0 0.0 0.00 0.00 0.00 89 1016.4
20260901031136 18 320 0.0 0.0 0.00 0.00 0.00 89 1016.4
20260901030133 18 320 0.0 0.0 0.00 0.00 0.00 89 1016.6
20260901025640 18 320 0.0 0.0 0.00 0.00 0.00 89 1016.5
20260901025137 17 313 0.0 0.0 0.00 0.00 0.00 88 1016.6
20260901024633 18 313 0.0 0.0 0.00 0.00 0.00 88 1016.5
20260901024133 18 312 0.0 0.0 0.00 0.00 0.00 88 1016.6
20260901023632 18 312 0.0 3.2 0.00 0.00 0.00 88 1016.7
20260901023134 18 312 0.0 3.2 0.00 0.00 0.00 88 1016.4
20260901022635 18 312 0.0 0.0 0.00 0.00 0.00 88 1016.6
20260901022135 18 312 0.0 0.0 0.00 0.00 0.00 88 1016.5
20260901021635 18 312 0.0 0.0 0.00 0.00 0.00 87 1016.7
20260901021130 18 312 0.0 3.2 0.00 0.00 0.00 87 1016.4
20260901020631 18 312 0.0 4.8 0.00 0.00 0.00 87 1016.4
20260901020130 18 314 3.2 4.8 0.00 0.00 0.00 87 1016.6
20260901015136 18 304 0.0 0.0 0.00 0.00 0.00 86 1016.3
20260901014630 18 304 0.0 3.2 0.00 0.00 0.00 86 1016.4
20260901013136 18 304 0.0 0.0 0.00 0.00 0.00 86 1016.6
20260901012639 18 304 0.0 0.0 0.00 0.00 0.00 86 1016.4
20260901012135 18 304 0.0 0.0 0.00 0.00 0.00 86 1016.3
20260901011614 18 304 0.0 0.0 0.00 0.00 0.00 85 1016.3
20260901011104 18 304 0.0 0.0 0.00 0.00 0.00 85 1016.6
20260901010547 18 304 0.0 0.0 0.00 0.00 0.00 85 1016.5
20260901010041 18 304 0.0 0.0 0.00 0.00 0.00 85 1016.4
20260901005544 18 304 0.0 0.0 0.00 0.00 0.00 85 1016.4
20260901005041 18 304 0.0 0.0 0.00 0.00 0.00 85 1016.3
20260901004541 18 304 0.0 0.0 0.00 0.00 0.00 84 1016.5
20260901004045 18 304 0.0 0.0 0.00 0.00 0.00 84 1016.4
20260901003544 18 304 0.0 0.0 0.00 0.00 0.00 84 1016.2
20260901003044 18 304 0.0 0.0 0.00 0.00 0.00 84 1016.5
20260901002530 18 304 0.0 0.0 0.00 0.00 0.00 84 1016.4
20260901002011 18 304 0.0 0.0 0.00 0.00 0.00 84 1016.5
20260901001505 18 304 0.0 0.0 0.00 0.00 0.00 84 1016.4
20260901000443 18 305 0.0 1.6 0.00 0.00 0.00 83 1016.5
20260831235942 18 304 0.0 1.6 0.00 0.00 0.00 82 1016.8
20260831235441 18 312 0.0 1.6 0.00 0.00 0.00 81 1016.6
20260831234445 18 312 0.0 1.6 0.00 0.00 0.00 81 1016.8
20260831233943 18 312 0.0 0.0 0.00 0.00 0.00 80 1016.5
20260831233445 18 312 0.0 0.0 0.00 0.00 0.00 80 1016.6
20260831232945 19 312 0.0 0.0 0.00 0.00 0.00 80 1016.6
20260831232442 19 312 0.0 0.0 0.00 0.00 0.00 80 1016.5
20260831231946 19 313 0.0 0.0 0.00 0.00 0.00 79 1016.3
20260831231443 20 312 0.0 0.0 0.00 0.00 0.00 78 1016.4
20260831230947 20 312 0.0 0.0 0.00 0.00 0.00 77 1016.4
20260831225945 20 312 0.0 1.6 0.00 0.00 0.00 76 1016.3
20260831224445 20 312 0.0 3.2 0.00 0.00 0.00 76 1016.4
20260831223944 20 312 1.6 4.8 0.00 0.00 0.00 75 1016.0
20260831223445 20 315 3.2 4.8 0.00 0.00 0.00 76 1016.1
20260831222945 21 323 0.0 0.0 0.00 0.00 0.00 76 1016.1
20260831220944 21 324 0.0 1.6 0.00 0.00 0.00 73 1016.1
20260831220443 21 324 0.0 1.6 0.00 0.00 0.00 72 1016.2
20260831215945 21 316 0.0 1.6 0.00 0.00 0.00 73 1016.0
20260831215442 21 316 0.0 1.6 0.00 0.00 0.00 72 1016.2
20260831214945 22 316 0.0 1.6 0.00 0.00 0.00 72 1015.9
20260831214445 22 318 1.6 1.6 0.00 0.00 0.00 71 1016.0
20260831213940 22 312 0.0 1.6 0.00 0.00 0.00 71 1015.8
20260831213443 23 312 0.0 3.2 0.00 0.00 0.00 71 1016.0
20260831212447 23 315 3.2 4.8 0.00 0.00 0.00 73 1015.8
20260831211944 23 313 3.2 3.2 0.00 0.00 0.00 73 1015.6
20260831211445 23 318 0.0 6.4 0.00 0.00 0.00 72 1015.9
20260831205943 23 310 1.6 3.2 0.00 0.00 0.00 71 1016.3
20260831205444 23 309 0.0 4.8 0.00 0.00 0.00 69 1015.9
20260831204946 23 309 0.0 4.8 0.00 0.00 0.00 68 1015.8
20260831204445 23 312 0.0 4.8 0.00 0.00 0.00 69 1015.6
20260831203945 23 314 1.6 4.8 0.00 0.00 0.00 69 1015.9
20260831203446 23 314 1.6 12.9 0.00 0.00 0.00 66 1015.8
20260831202945 24 325 4.8 12.9 0.00 0.00 0.00 68 1015.7
20260831201948 24 326 6.4 11.3 0.00 0.00 0.00 68 1015.3
20260831201445 23 325 3.2 11.3 0.00 0.00 0.00 63 1015.7
20260831200943 23 313 6.4 9.7 0.00 0.00 0.00 63 1015.4
20260831195945 23 310 3.2 3.2 0.00 0.00 0.00 56 1015.3
20260831195441 23 310 1.6 11.3 0.00 0.00 0.00 57 1015.4
20260831194943 23 317 3.2 11.3 0.00 0.00 0.00 56 1015.3
20260831194442 23 323 3.2 6.4 0.00 0.00 0.00 54 1015.3
20260831193936 24 311 1.6 6.4 0.00 0.00 0.00 54 1015.0
20260831193436 25 315 3.2 6.4 0.00 0.00 0.00 53 1015.3
20260831192934 25 319 1.6 6.4 0.00 0.00 0.00 51 1015.1
20260831192417 25 314 3.2 9.7 0.00 0.00 0.00 50 1015.0
20260831191917 26 320 3.2 9.7 0.00 0.00 0.00 51 1015.2
20260831190904 26 322 3.2 16.1 0.00 0.00 0.00 49 1014.9
20260831190407 26 320 4.8 16.1 0.00 0.00 0.00 48 1014.8
20260831185907 26 304 6.4 14.5 0.00 0.00 0.00 47 1014.9
20260831185351 26 339 1.6 14.5 0.00 0.00 0.00 46 1014.9
20260831184851 26 320 1.6 16.1 0.00 0.00 0.00 44 1014.7
20260831184353 26 315 3.2 16.1 0.00 0.00 0.00 44 1014.8
20260831183841 26 308 6.4 11.3 0.00 0.00 0.00 43 1014.6
20260831183342 26 308 6.4 11.3 0.00 0.00 0.00 42 1014.7
20260831182843 27 322 1.6 11.3 0.00 0.00 0.00 42 1014.6
20260831182343 27 308 4.8 12.9 0.00 0.00 0.00 42 1014.7
20260831181842 27 313 3.2 12.9 0.00 0.00 0.00 42 1014.6
20260831181346 27 317 3.2 9.7 0.00 0.00 0.00 44 1014.7
20260831180843 27 318 1.6 14.5 0.00 0.00 0.00 43 1014.7
20260831180342 27 314 1.6 20.9 0.00 0.00 0.00 42 1014.5